Tracking 19242 objects as of 18-Sep-2018
HD Live streaming from Space Station
objects crossing your sky now

FENGYUN 1C DEB

Track FENGYUN 1C DEB now!
10-day predictions


NORAD ID: 35213
Int'l Code: 1999-025DPV
Perigee: 517.6 km
Apogee: 753.3 km
Inclination: 98.5 °
Period: 97.3 minutes
Semi major axis: 7006 km
RCS: 0.006 m2 (small)
Launch date: May 10, 1999
Source: People's Republic of China (PRC)
Launch site: Taiyaun Space Center, China (TSC)

Note: This is SATELLITE DEBRIS
aabbcc
Your satellite tracking list
Your tracking list is empty




NASA's NSSDC Master Catalog

Two Line Element Set (TLE):
1 35213U 99025DPV 18259.98570061  .00002609  00000-0  27617-3 0  9993
2 35213  98.5152  62.8789 0168152 203.0271 156.3341 14.80321328534821
Source of the keplerian elements: AFSPC